Home   Weather   Mountain View   Past weeks

Flag for USA Past Weather in Mountain View, California, USA — Yesterday and Last 2 Weeks

61 °F


Feels Like: 61 °F
Forecast: 58 / 69 °F
Wind: 13 mph from Southeast

Location: Moffett Field

Current Time: Oct 24, 2016 at 8:56:26 AM

Latest Report: Oct 24, 2016 at 7:56 AM

Visibility: 10 mi

Pressure: 29.96 "Hg

Humidity: 70%

Dew Point: 51 °F

Location of Mountain ViewLocation

Past Weather in Mountain View — Graph


Mountain View Temperature Yesterday

Maximum temperature yesterday: 69 °F (at 1:56 PM)
Minimum temperature yesterday: 51 °F (at 6:56 AM)
Average temperature yesterday: 60 °F

High & Low Weather Summary for the Past Weeks

High82 °F (Oct 9, 1:56 PM)97% (Oct 15, 7:56 AM)30.22 "Hg (Oct 15, 7:56 AM)
Low51 °F (Oct 13, 4:56 AM)23% (Oct 9, 1:56 PM)29.77 "Hg (Oct 16, 3:56 PM)
Average63 °F68%30.01 "Hg
* Reported Oct 9 6:56 AM — Oct 24 6:56 AM, Mountain View, Weather by CustomWeather, © 2016

Note: Actual official high and low records may vary slightly from our data, if they occured in-between our weather recording intervals... More about our weather records


Mountain View Weather History for the Previous 24 Hours

Scroll right to see more
Time TempWeatherWind HumidityBarometerVisibility
6:56 AM
Mon, Oct 24
61 °FOvercast.17 mph75%29.96 "Hg10 mi
6:03 AM61 °FPassing clouds.10 mph75%29.94 "Hg10 mi
5:56 AM61 °FPassing clouds.5 mph72%29.95 "Hg10 mi
4:56 AM62 °FPassing clouds.No wind70%29.94 "Hg10 mi
3:56 AM63 °FClear.16 mph68%29.92 "Hg10 mi
2:56 AM63 °FPassing clouds.13 mph65%29.92 "Hg10 mi
1:56 AM63 °FPassing clouds.13 mph68%29.94 "Hg10 mi
12:56 AM62 °FPassing clouds.N/A70%29.93 "Hg10 mi
11:56 PM
Sun, Oct 23
62 °FClear.No wind67%29.92 "Hg10 mi
10:56 PM62 °FClear.6 mph70%29.92 "Hg10 mi
9:56 PM62 °FClear.6 mph70%29.92 "Hg10 mi
8:56 PM63 °FClear.6 mph68%29.91 "Hg10 mi
7:56 PM62 °FClear.14 mph70%29.90 "Hg10 mi
6:56 PM64 °FClear.14 mph61%29.89 "Hg10 mi
5:56 PM65 °FSunny.7 mph66%29.89 "Hg10 mi
4:56 PM68 °FSunny.7 mph59%29.88 "Hg10 mi
3:56 PM68 °FSunny.9 mph61%29.88 "Hg10 mi
2:56 PM68 °FSunny.14 mph61%29.89 "Hg10 mi
1:56 PM69 °FSunny.8 mph51%29.91 "Hg10 mi
12:56 PM66 °FSunny.5 mph56%29.94 "Hg10 mi
11:56 AM65 °FSunny.7 mph59%29.96 "Hg10 mi
10:56 AM61 °FSunny.6 mph67%29.96 "Hg10 mi
9:56 AM59 °FSunny.3 mph69%29.96 "Hg10 mi
8:56 AM54 °FSunny.No wind74%29.95 "Hg10 mi
Weather by CustomWeather, © 2016

See weather overviewHow to use our weather pages